Home   Weather   Friesoythe   Past weeks

Flag for Germany Past Weather in Friesoythe, Lower Saxony, Germany — Yesterday and Last 2 Weeks

Now
46 °F

Cool.


Feels Like: 42 °F
Forecast: 39 / 49 °F
Wind: 8 mph from West

Location: Meppen-Mil

Current Time: Feb 22, 2017 at 9:11:38 pm

Latest Report: Feb 22, 2017 at 8:20 pm


Visibility: N/A

Pressure: 29.59 "Hg

Humidity: 87%

Dew Point: 43 °F

Location of FriesoytheLocation

Past Weather in Friesoythe — Graph

°F

Friesoythe Temperature Yesterday

Maximum temperature yesterday: 50 °F (at 12:20 am)
Minimum temperature yesterday: 41 °F (at 7:20 pm)
Average temperature yesterday: 46 °F

High & Low Weather Summary for the Past Weeks

 TemperatureHumidityPressure
High54 °F (Feb 15, 2:20 pm)100% (Feb 15, 6:20 am)30.51 "Hg (Feb 15, 6:20 am)
Low25 °F (Feb 9, 8:20 pm)47% (Feb 15, 2:20 pm)29.56 "Hg (Feb 22, 7:20 am)
Average37 °F81%30.23 "Hg
* Reported Feb 7 7:20 pm — Feb 22 7:20 pm, Friesoythe, Weather by CustomWeather, © 2017

Note: Actual official high and low records may vary slightly from our data, if they occured in-between our weather recording intervals... More about our weather records

Advertising

Friesoythe Weather History for the Previous 24 Hours

Scroll right to see more
 ConditionsComfort  
Time TempWeatherWind HumidityBarometerVisibility
7:20 pm
Wed, Feb 22
45 °FQuite cool.9 mph87%29.59 "HgN/A
6:20 pm45 °FQuite cool.9 mph81%29.59 "HgN/A
5:20 pm45 °FQuite cool.9 mph87%29.59 "HgN/A
4:20 pm45 °FLight rain. Broken clouds.10 mph81%29.59 "HgN/A
3:20 pm45 °FLight rain. Broken clouds.12 mph87%29.59 "HgN/A
2:20 pm46 °FSprinkles. Broken clouds.9 mph87%29.59 "Hg6 mi
2:05 pm48 °FRain showers. Broken clouds.10 mph82%29.59 "Hg5 mi
1:20 pm48 °FSprinkles. Partly sunny.10 mph82%29.59 "HgN/A
12:20 pm50 °FBroken clouds.13 mph88%29.59 "HgN/A
11:20 am50 °FDrizzle. Broken clouds.13 mph88%29.59 "HgN/A
10:48 am50 °FDrizzle. Partly sunny.13 mph88%29.59 "Hg4 mi
10:20 am50 °FBroken clouds.12 mph88%29.59 "HgN/A
9:47 am50 °FBroken clouds.12 mph88%29.56 "Hg5 mi
9:20 am50 °FDrizzle. Fog.13 mph94%29.56 "Hg3 mi
8:20 am50 °FPartly cloudy.13 mph88%29.56 "Hg4 mi
8:07 am50 °FDrizzle. Fog.13 mph88%29.56 "Hg3 mi
7:20 am48 °FLight rain. Mostly cloudy.13 mph94%29.56 "HgN/A
6:20 am48 °FRain. Passing clouds.12 mph94%29.59 "Hg5 mi
5:20 am50 °FCool.9 mph88%29.59 "Hg3 mi
4:20 am50 °FCool.10 mph88%29.59 "HgN/A
3:20 am50 °FCool.9 mph94%29.65 "HgN/A
2:20 am50 °FCool.8 mph94%29.65 "Hg2 mi
1:20 am48 °FCool.8 mph94%29.68 "Hg2 mi
12:20 am48 °FCool.8 mph94%29.71 "Hg5 mi
11:20 pm
Tue, Feb 21
46 °FCool.5 mph87%29.77 "HgN/A
10:20 pm45 °FQuite cool.6 mph81%29.80 "HgN/A
9:20 pm41 °FQuite cool.3 mph87%29.83 "HgN/A
Weather by CustomWeather, © 2017

See weather overviewHow to use our weather pages